Showing default

COSMOS 2329, 23791

Orbit data source: Space-Track

COSMOS 2329, 23791 is a payload satellite owned by VKS (CIS) in LEO that was launched on Mon, 19 Feb 1996 UTC via a TSIKLON-3 launch vehicle from the Plesetsk Missile And Space Complex (PKMTR). Payload-class satellites include a variety of spacecraft equipped with specific instruments for various scientific and technological missions. These include communications satellites like Starlink; space stations such as the ISS; scientific satellites like the Hubble; Earth observation satellites from companies like Planet Labs, Umbra, and HawkEye 360; GPS; miniature CubeSats for education and research; and military/defense satellites.

Loading next visibility...
Identifier
23791, 1996-009E
Orbit
LEO
Country
Flag of CISCIS
Related business
Manufacturer
NPO PM
Mission
Non-operational Defense Communications
Bus & Motor
STRELA-3, Unknown motor
Mass
225 kg wet, 225 kg dry
Launch date (UTC)
1996-02-19 (30 years ago)
Launch vehicle
TSIKLON-3
Launch site
Plesetsk Missile And Space Complex (PKMTR)
Object type
Payload
Rocket body
Debris
Shape & HBR
Cyl + 1 Ant, 3.5 m
Radar Cross Section
1.583 m², Large (>1 m²)

Expand to show TLE details & history
Last TLE update: 13 hours ago

TLE from 13 hours ago
0 COSMOS 2329
1 23791U 96009E   25355.02583520  .00000034  00000-0  12967-3 0  9996
2 23791  82.5722  79.5066 0009895 109.0759  64.9582 12.61699778373895
Epoch: 2025-12-21T00:37Z
TLE epoch observation values (Epoch: 2025-12-21T00:37:12.161Z)
Latitude
5.73834°
Longitude
159.61479°
Altitude
1,414.847 km
Speed
7.155 km/s
True Right ascension
17h 15m 02s
True Declination
5° 42' 26"
Sunlit
Object was in daylight at epoch
Visualization orbit readout
Latitude
Unknown
Longitude
Unknown
Altitude
Unknown
Speed
Unknown
Apparent Right ascension
Unknown
Apparent Declination
Unknown
Sunlit
N/A
Visualization observer readout
Local Sidereal Time
12:56:13
Azimuth
Unknown
Elevation
Unknown
Doppler factor
Unknown
Orbital elements
Apogee altitude
1,420.968 km
Perigee altitude
1,405.549 km
Semi-major axis
7,791.395 km
Eccentricity
0.00099
Inclination
82.5722°
RAAN
79.5066°
Arg. of periapsis
109.0759°
True anomaly
65.06098°
Mean anomaly
64.9582°
Eccentric anomaly
65.00959°
Mean motion
3.15588 °/min
Orbital period
114.07 mins
BSTAR
0.00012967
Loading maneuver chart data...
Computing Atmospheric mass density...
Loading historical data...
Loading historical data...
Loading historical data...
Loading historical data...
Loading historical data...
Loading historical data...
Loading historical data...

Documentation

Showing up to 5 results
|